Regional Weather Roundup
Issued by NWS

Home | Current Version | Previous Version | Text Only | Print | Product List | Glossary Off
Versions: 1 2 3 4 5 6 7 8 9 10 11 12 13 14 15 16 17 18 19 20 21 22 23 24 25 26 27 28 29 30 31 32 33 34 35 36 37 38 39 40 41 42 43 44 45 46 47 48 49 50

000
ASUS43 KBIS 192110
RWRND

NORTH DAKOTA REGIONAL WEATHER ROUNDUP
NATIONAL WEATHER SERVICE BISMARCK ND
400 PM CDT TUE SEP 19 2017

NOTE: "FAIR" INDICATES FEW OR NO CLOUDS BELOW 12,000 FEET WITH NO
SIGNIFICANT WEATHER AND/OR OBSTRUCTIONS TO VISIBILITY.


NDZ001>003-009>011-017-192200-
NORTHWEST NORTH DAKOTA

CITY           SKY/WX    TMP DP  RH WIND       PRES   REMARKS
WILLISTON      CLOUDY    62  48  60 W16       29.49R
MINOT          CLOUDY    65  56  72 SW16G22   29.43S
MINOT AFB      CLOUDY    64  56  77 W10       29.41F
$$

NDZ018>021-031>035-040>046-192200-
SOUTHWEST NORTH DAKOTA

CITY           SKY/WX    TMP DP  RH WIND       PRES   REMARKS
BISMARCK       MOSUNNY   74  53  48 SW8       29.46S
DICKINSON      CLOUDY    59  49  69 W15       29.53R
GARRISON         N/A     63  56  78 W10G22    29.47R
HETTINGER ARPT LGT RAIN  59  51  75 NW14      29.54S
$$

NDZ004>008-012>016-024-026-027-054-192200-
NORTHEAST NORTH DAKOTA

CITY           SKY/WX    TMP DP  RH WIND       PRES   REMARKS
GRAND FORKS    CLOUDY    75  64  68 SE18G25   29.56R
GRND FRKS AFB  CLOUDY    74  62  67 SE20G29   29.55S
DEVILS LAKE    LGT RAIN  65  63  93 SE18G24   29.50F FOG
$$

NDZ022-023-025-028>030-036>039-047>053-192200-
SOUTHEAST NORTH DAKOTA

CITY           SKY/WX    TMP DP  RH WIND       PRES   REMARKS
FARGO          CLOUDY    73  64  73 SE18G32   29.56F
JAMESTOWN      LGT RAIN  67  64  90 SE22G30   29.44F
$$





USA.gov is the U.S. government's official web portal to all federal, state and local government web resources and services.